| time (UTC) | temp F | wind direction | speed MPH | gust MPH | rain 1hr in | rain 24hr in | rain mn in | humidity % | barometer mb |
| 20260506043013 | 66 | 114 | 0.0 | 0.0 | 0.00 | 0.00 | 0.00 | 91 | 1014.4 |
| 20260506041512 | 67 | 114 | 0.0 | 0.0 | 0.00 | 0.00 | 0.00 | 91 | 1014.6 |
| 20260506040018 | 67 | 114 | 0.0 | 0.0 | 0.00 | 0.00 | 0.00 | 91 | 1014.8 |
| 20260506034521 | 67 | 114 | 0.0 | 0.0 | 0.00 | 0.00 | 0.00 | 91 | 1014.7 |
| 20260506033022 | 67 | 114 | 0.0 | 0.0 | 0.00 | 0.00 | 0.00 | 91 | 1014.7 |
| 20260506031516 | 67 | 114 | 0.0 | 0.0 | 0.00 | 0.00 | 0.00 | 90 | 1014.7 |
| 20260506030018 | 68 | 114 | 0.0 | 0.0 | 0.00 | 0.00 | 0.00 | 90 | 1014.9 |
| 20260506024528 | 68 | 114 | 0.0 | 0.0 | 0.00 | 0.00 | 0.00 | 89 | 1014.7 |
| 20260506023024 | 68 | 114 | 0.0 | 0.0 | 0.00 | 0.00 | 0.00 | 89 | 1014.7 |
| 20260506021526 | 69 | 114 | 0.0 | 0.0 | 0.00 | 0.00 | 0.00 | 88 | 1014.5 |
| 20260506014519 | 70 | 113 | 0.0 | 0.0 | 0.00 | 0.00 | 0.00 | 86 | 1014.6 |
| 20260506013024 | 70 | 114 | 0.0 | 0.0 | 0.00 | 0.00 | 0.00 | 85 | 1014.5 |
| 20260506011527 | 70 | 134 | 0.0 | 1.0 | 0.00 | 0.00 | 0.00 | 84 | 1014.3 |
| 20260506010028 | 71 | 129 | 0.0 | 2.0 | 0.00 | 0.00 | 0.00 | 83 | 1014.3 |
| 20260506003023 | 72 | 138 | 0.0 | 3.0 | 0.00 | 0.00 | 0.00 | 81 | 1014.2 |
| 20260506001524 | 72 | 133 | 1.0 | 3.0 | 0.00 | 0.00 | 0.00 | 80 | 1014.1 |
| 20260506000026 | 73 | 191 | 0.0 | 5.0 | 0.00 | 0.00 | 0.00 | 79 | 1014.1 |
| 20260505233021 | 74 | 131 | 0.0 | 4.0 | 0.00 | 0.00 | 0.00 | 77 | 1014.3 |
| 20260505231524 | 74 | 82 | 1.0 | 6.0 | 0.00 | 0.00 | 0.00 | 75 | 1014.4 |
| 20260505230027 | 75 | 135 | 1.0 | 3.0 | 0.00 | 0.00 | 0.00 | 74 | 1014.3 |
| 20260505224530 | 75 | 56 | 2.0 | 6.0 | 0.00 | 0.00 | 0.00 | 74 | 1014.3 |
| 20260505221503 | 76 | 91 | 2.0 | 6.0 | 0.00 | 0.00 | 0.00 | 73 | 1013.9 |
| 20260505220010 | 76 | 44 | 2.0 | 7.0 | 0.00 | 0.00 | 0.00 | 71 | 1013.9 |
| 20260505213002 | 78 | 179 | 2.0 | 9.0 | 0.00 | 0.00 | 0.00 | 71 | 1014.2 |
| 20260505211503 | 78 | 115 | 2.0 | 6.0 | 0.00 | 0.00 | 0.00 | 70 | 1014.2 |
| 20260505210009 | 77 | 49 | 1.0 | 6.0 | 0.00 | 0.00 | 0.00 | 68 | 1014.3 |
| 20260505204517 | 78 | 141 | 2.0 | 6.0 | 0.00 | 0.00 | 0.00 | 67 | 1014.4 |
| 20260505201504 | 77 | 57 | 1.0 | 7.0 | 0.00 | 0.00 | 0.00 | 67 | 1014.6 |
| 20260505200012 | 78 | 70 | 1.0 | 6.0 | 0.00 | 0.00 | 0.00 | 68 | 1014.7 |
| 20260505194508 | 79 | 80 | 2.0 | 7.0 | 0.00 | 0.00 | 0.00 | 65 | 1014.9 |
| 20260505180020 | 78 | 40 | 2.0 | 7.0 | 0.00 | 0.00 | 0.00 | 68 | 1015.6 |
| 20260505164522 | 76 | 37 | 2.0 | 7.0 | 0.00 | 0.00 | 0.00 | 67 | 1015.6 |
| 20260505124517 | 58 | 199 | 0.0 | 1.0 | 0.00 | 0.00 | 0.00 | 95 | 1015.5 |
| 20260505120027 | 53 | 25 | 0.0 | 0.0 | 0.00 | 0.00 | 0.00 | 94 | 1015.0 |
| 20260505113025 | 52 | 239 | 0.0 | 0.0 | 0.00 | 0.00 | 0.00 | 93 | 1014.5 |
| 20260505111521 | 51 | 222 | 0.0 | 2.0 | 0.00 | 0.00 | 0.00 | 93 | 1014.3 |
| 20260505101508 | 52 | 131 | 0.0 | 0.0 | 0.00 | 0.00 | 0.00 | 93 | 1014.2 |
| 20260505100006 | 52 | 131 | 0.0 | 0.0 | 0.00 | 0.00 | 0.00 | 93 | 1014.3 |
| 20260505094518 | 52 | 131 | 0.0 | 0.0 | 0.00 | 0.00 | 0.00 | 93 | 1014.1 |
| 20260505093014 | 52 | 131 | 0.0 | 0.0 | 0.00 | 0.00 | 0.00 | 93 | 1014.2 |
| 20260505091517 | 52 | 131 | 0.0 | 0.0 | 0.00 | 0.00 | 0.00 | 93 | 1014.1 |
| 20260505090008 | 52 | 131 | 0.0 | 0.0 | 0.00 | 0.00 | 0.00 | 93 | 1014.0 |
| 20260505084508 | 52 | 131 | 0.0 | 0.0 | 0.00 | 0.00 | 0.00 | 92 | 1013.9 |
| 20260505083014 | 52 | 131 | 0.0 | 0.0 | 0.00 | 0.00 | 0.00 | 92 | 1013.8 |
| 20260505081515 | 52 | 131 | 0.0 | 0.0 | 0.00 | 0.00 | 0.00 | 92 | 1013.8 |
| 20260505080022 | 52 | 131 | 0.0 | 0.0 | 0.00 | 0.00 | 0.00 | 92 | 1013.8 |
| 20260505074507 | 52 | 131 | 0.0 | 0.0 | 0.00 | 0.00 | 0.00 | 92 | 1014.1 |
| 20260505073010 | 53 | 131 | 0.0 | 0.0 | 0.00 | 0.00 | 0.00 | 92 | 1014.0 |
| 20260505071513 | 53 | 131 | 0.0 | 0.0 | 0.00 | 0.00 | 0.00 | 92 | 1014.0 |
| 20260505070029 | 53 | 131 | 0.0 | 0.0 | 0.00 | 0.00 | 0.00 | 92 | 1014.2 |
| 20260505064524 | 53 | 131 | 0.0 | 0.0 | 0.00 | 0.00 | 0.00 | 91 | 1014.3 |
| 20260505063009 | 54 | 131 | 0.0 | 0.0 | 0.00 | 0.00 | 0.00 | 92 | 1014.6 |